This demonstration page uses our WeatherBlox Daily Observations layout. Learn more.

Left ArrowRight Arrow

34.16533, -84.80231

Hourly Observations for August 24, 2017

Temp ( °F °C ) Dew Point ( °F °C ) Humidity (%) Winds ( mph kmh ) Pressure ( in mb ) Visibility ( mi km ) Precip ( " mm )
12:53 am 00:53 Clear 69 20.6 65 18.3 87 87 Calm 29.91 1013 10 16 0.00 0.00
1:53 am 01:53 Clear 68 20 64 17.8 87 87 Calm 29.91 1013 10 16 0.00 0.00
2:53 am 02:53 Clear 65 18.3 64 17.8 97 97 Calm 29.90 1013 10 16 0.00 0.00
3:53 am 03:53 Clear 64 17.8 63 17.2 96 96 Calm 29.90 1013 10 16 0.00 0.00
4:53 am 04:53 Clear 63 17.2 63 17.2 100 100 Calm 29.90 1012 10 16 0.00 0.00
5:53 am 05:53 Clear 63 17.2 62 16.7 97 97 WSW 3 6 29.91 1013 10 16 0.00 0.00
6:53 am 06:53 Clear 62 16.7 62 16.7 100 100 Calm 29.92 1013 10 16 0.00 0.00
7:53 am 07:53 Sunny 64 17.8 63 17.2 96 96 Calm 29.92 1013 10 16 0.00 0.00
8:53 am 08:53 Sunny 69 20.6 64 17.8 84 84 Calm 29.93 1014 10 16 0.00 0.00
9:53 am 09:53 Sunny 71 21.7 64 17.8 79 79 Calm 29.94 1014 10 16 0.00 0.00
10:53 am 10:53 Sunny 76 24.4 65 18.3 69 69 N 7 11 29.95 1014 10 16 0.00 0.00
11:53 am 11:53 Sunny 81 27.2 65 18.3 58 58 NNW 8 13 29.94 1014 10 16 0.00 0.00
12:53 pm 12:53 Sunny 83 28.3 65 18.3 55 55 NNE 13 20 29.93 1014 10 16 0.00 0.00
1:53 pm 13:53 Mostly Sunny 85 29.4 65 18.3 51 51 VRB 6 9 29.92 1013 10 16 0.00 0.00
2:53 pm 14:53 Sunny 86 30 64 17.8 48 48 undefined N/A 29.91 1013 10 16 0.00 0.00
3:53 pm 15:53 Sunny 87 30.6 63 17.2 45 45 N 5 7 29.90 1013 10 16 0.00 0.00
4:53 pm 16:53 Sunny 88 31.1 61 16.1 40 40 N 8 13 29.90 1012 10 16 0.00 0.00
5:53 pm 17:53 Sunny 86 30 60 15.6 42 42 N 8 13 29.88 1012 10 16 0.00 0.00
6:53 pm 18:53 Sunny 83 28.3 60 15.6 46 46 VRB 7 11 29.88 1012 10 16 0.00 0.00
7:53 pm 19:53 Sunny 81 27.2 59 15 47 47 N 7 11 29.89 1012 10 16 0.00 0.00
8:53 pm 20:53 Clear 72 22.2 61 16.1 68 68 Calm 29.91 1013 10 16 0.00 0.00
9:53 pm 21:53 Clear 72 22.2 59 15 64 64 Calm 29.93 1014 10 16 0.00 0.00
10:53 pm 22:53 Clear 69 20.6 59 15 70 70 Calm 29.95 1014 10 16 0.00 0.00
11:53 pm 23:53 Clear 64 17.8 59 15 84 84 Calm 29.95 1014 10 16 0.00 0.00

Powered by AerisWeather